カタログに戻る

SL-8 DEB

運用中LEO
NORAD 21254·DEBRIS·🇷🇺 Russia

打ち上げ Feb 12, 1991 から Plesetsk Cosmodrome

Loading…

次のパス (今後24時間)

TLE

最新Source: Space-Track

元期: Sep 14, 2026, 08:23 UTC

1 21254U 91009BM  26257.34932632 -.00000031  00000-0 -10467-3 0  9994
2 21254  73.8920  28.1640 0189238 357.9333  29.0893 12.39411787607287

AllMySatでSL-8 DEBをリアルタイム追跡

Download on the App Store